Location: Unspecified
(0.0000°N, 0.0000°E)
Time: 15:27:04
(UTC+00:00)

FENGYUN 1C DEB - Pass Details

Date: 23 February 2026
Orbit: 819 x 963 km, 99.2° (Epoch: 3 October)

Event Time Altitude Azimuth Distance (km) Brightness Sun altitude
Rises 03:25:31 0° 136° (SE) 3,473 ? -41.2°
Reaches altitude 10° 03:28:46 10° 117° (ESE) 2,506 ? -40.4°
Maximum altitude 03:32:18 17° 77° (ENE) 2,004 ? -39.6°
Enters shadow 03:34:48 13° 46° (NE) 2,245 ? -39.0°
